Find Starlink 32953

NORAD ID: 63561 Int'l Des: 2025-075 Owner: SPXS Country: US Constellation: starlink operational
LEOCIRCULAR

实时位置

正在加载3D地球...

关于 Starlink 32953

正在加载描述...

即将过境

Passes for default location (London). Set your location on the main map for personalized predictions.

高度历史

Loading altitude history...

两行轨道根数

1 63561U 25075P 26123.53765867 .00020195 00000-0 74117-3 0 9991
2 63561 43.0012 321.0558 0001723 267.9664 92.0990 15.27588912 60317
Epoch: May 3, 2026 • Age: 12 hours

当前状态

高度 482.9 km
速度 7.63 km/s
星下点 19.76°N, 114.29°W
发射日期 Apr 13, 2025
运行时间 1 years
类型 internet

技术详情

分类 Payload
质量 730.00 kg
干质量 700.00 kg
总质量 730.00 kg
长度 0.30 m
直径 4.10 m
跨度 29.00 m
形状 Box + pan
制造商 SPXS
平台类型 Starlink V2M
阶段状态 In Orbit
所有者/国家 SPXS/US

Most Searched